Time,TemperatureF,DewpointF,PressureIn,WindDirection,WindDirectionDegrees,WindSpeedMPH,WindSpeedGustMPH,Humidity,HourlyPrecipIn,Conditions,Clouds,dailyrainin,SoftwareType,DateUTC
2013-02-27 00:05:00,33.4,29.0,30.04,ESE,116,0.0,3.0,82,0.00,,,0.00,weatherlink.com 1.10,2013-02-27 05:05:00,
2013-02-27 00:20:00,32.6,29.0,30.04,South,174,0.0,6.0,87,0.00,,,0.00,weatherlink.com 1.10,2013-02-27 05:20:00,
2013-02-27 00:35:00,32.0,28.0,30.03,East,93,0.0,4.0,86,0.00,,,0.00,weatherlink.com 1.10,2013-02-27 05:35:00,
2013-02-27 00:50:00,31.7,29.0,30.04,ENE,66,0.0,2.0,90,0.00,,,0.00,weatherlink.com 1.10,2013-02-27 05:50:00,
2013-02-27 01:05:00,31.2,29.0,30.05,SE,124,0.0,1.0,92,0.00,,,0.00,weatherlink.com 1.10,2013-02-27 06:05:00,
2013-02-27 01:21:00,31.0,29.0,30.03,SE,124,0.0,0.0,92,0.00,,,0.00,weatherlink.com 1.10,2013-02-27 06:21:00,
2013-02-27 01:36:00,30.8,29.0,30.04,SE,124,0.0,0.0,93,0.00,,,0.00,weatherlink.com 1.10,2013-02-27 06:36:00,
2013-02-27 01:51:00,30.7,29.0,30.03,SE,124,0.0,0.0,93,0.00,,,0.00,weatherlink.com 1.10,2013-02-27 06:51:00,
2013-02-27 02:06:00,30.7,29.0,30.02,SE,124,0.0,0.0,94,0.00,,,0.00,weatherlink.com 1.10,2013-02-27 07:06:00,
2013-02-27 02:21:00,30.6,29.0,30.02,SE,124,0.0,0.0,94,0.00,,,0.00,weatherlink.com 1.10,2013-02-27 07:21:00,
2013-02-27 02:36:00,30.5,29.0,30.01,SE,124,0.0,0.0,95,0.00,,,0.00,weatherlink.com 1.10,2013-02-27 07:36:00,
2013-02-27 02:51:00,30.5,29.0,29.99,SE,124,0.0,0.0,95,0.00,,,0.00,weatherlink.com 1.10,2013-02-27 07:51:00,
2013-02-27 03:06:00,30.5,29.0,29.98,SE,124,0.0,0.0,95,0.00,,,0.00,weatherlink.com 1.10,2013-02-27 08:06:00,
2013-02-27 03:21:00,30.3,29.0,29.97,SE,124,0.0,0.0,95,0.00,,,0.00,weatherlink.com 1.10,2013-02-27 08:21:00,
2013-02-27 03:36:00,30.3,29.0,29.95,SE,124,0.0,0.0,96,0.00,,,0.00,weatherlink.com 1.10,2013-02-27 08:36:00,
2013-02-27 03:51:00,30.3,29.0,29.95,East,82,0.0,0.0,96,0.00,,,0.00,weatherlink.com 1.10,2013-02-27 08:51:00,
2013-02-27 04:06:00,30.4,29.0,29.94,SE,126,0.0,2.0,96,0.00,,,0.00,weatherlink.com 1.10,2013-02-27 09:06:00,
2013-02-27 04:21:00,30.4,29.0,29.93,SE,126,0.0,0.0,96,0.00,,,0.00,weatherlink.com 1.10,2013-02-27 09:21:00,
2013-02-27 04:36:00,30.5,30.0,29.92,SE,126,0.0,0.0,96,0.00,,,0.00,weatherlink.com 1.10,2013-02-27 09:36:00,
2013-02-27 04:51:00,30.6,30.0,29.91,SE,126,0.0,0.0,96,0.00,,,0.00,weatherlink.com 1.10,2013-02-27 09:51:00,
2013-02-27 05:06:00,30.7,30.0,29.91,SE,126,0.0,0.0,96,0.00,,,0.00,weatherlink.com 1.10,2013-02-27 10:06:00,
2013-02-27 05:21:00,30.8,30.0,29.90,SE,126,0.0,0.0,97,0.00,,,0.00,weatherlink.com 1.10,2013-02-27 10:21:00,
2013-02-27 05:36:00,30.8,30.0,29.89,SE,126,0.0,0.0,97,0.00,,,0.00,weatherlink.com 1.10,2013-02-27 10:36:00,
2013-02-27 05:51:00,30.9,30.0,29.88,SE,126,0.0,0.0,97,0.00,,,0.00,weatherlink.com 1.10,2013-02-27 10:51:00,
2013-02-27 06:06:00,31.0,30.0,29.87,East,82,0.0,2.0,97,0.00,,,0.00,weatherlink.com 1.10,2013-02-27 11:06:00,
2013-02-27 06:21:00,31.1,30.0,29.86,East,82,0.0,0.0,97,0.00,,,0.00,weatherlink.com 1.10,2013-02-27 11:21:00,
2013-02-27 06:36:00,31.1,30.0,29.84,East,82,0.0,0.0,97,0.00,,,0.00,weatherlink.com 1.10,2013-02-27 11:36:00,
2013-02-27 06:51:00,31.2,31.0,29.84,East,82,0.0,0.0,97,0.00,,,0.00,weatherlink.com 1.10,2013-02-27 11:51:00,
2013-02-27 07:06:00,31.3,31.0,29.83,East,82,0.0,0.0,97,0.00,,,0.00,weatherlink.com 1.10,2013-02-27 12:06:00,
2013-02-27 07:21:00,31.6,31.0,29.83,East,82,0.0,0.0,97,0.00,,,0.00,weatherlink.com 1.10,2013-02-27 12:21:00,
2013-02-27 07:36:00,32.0,31.0,29.82,SSE,166,0.0,1.0,97,0.00,,,0.00,weatherlink.com 1.10,2013-02-27 12:36:00,
2013-02-27 07:51:00,32.3,32.0,29.81,SSE,166,0.0,0.0,97,0.00,,,0.00,weatherlink.com 1.10,2013-02-27 12:51:00,
2013-02-27 08:06:00,32.5,32.0,29.80,SSE,166,0.0,0.0,97,0.00,,,0.00,weatherlink.com 1.10,2013-02-27 13:06:00,
2013-02-27 08:22:00,32.6,32.0,29.80,SSE,166,0.0,0.0,97,0.00,,,0.00,weatherlink.com 1.10,2013-02-27 13:22:00,
2013-02-27 08:37:00,32.8,32.0,29.79,SSE,166,0.0,0.0,97,0.00,,,0.00,weatherlink.com 1.10,2013-02-27 13:37:00,
2013-02-27 08:52:00,32.8,32.0,29.78,SSE,166,0.0,0.0,97,0.00,,,0.00,weatherlink.com 1.10,2013-02-27 13:52:00,
2013-02-27 09:07:00,32.8,32.0,29.78,SSE,166,0.0,0.0,97,0.00,,,0.00,weatherlink.com 1.10,2013-02-27 14:07:00,
2013-02-27 09:22:00,32.7,32.0,29.77,SSE,166,0.0,1.0,97,0.00,,,0.00,weatherlink.com 1.10,2013-02-27 14:22:00,
2013-02-27 09:37:00,32.6,32.0,29.76,SSE,166,0.0,0.0,97,0.00,,,0.00,weatherlink.com 1.10,2013-02-27 14:37:00,
2013-02-27 09:52:00,32.7,32.0,29.75,SSE,166,1.0,2.0,97,0.00,,,0.00,weatherlink.com 1.10,2013-02-27 14:52:00,
2013-02-27 10:07:00,32.7,32.0,29.73,SSE,166,0.0,1.0,97,0.00,,,0.00,weatherlink.com 1.10,2013-02-27 15:07:00,
2013-02-27 10:22:00,32.9,32.0,29.73,NNE,32,1.0,2.0,97,0.00,,,0.00,weatherlink.com 1.10,2013-02-27 15:22:00,
2013-02-27 10:37:00,33.2,33.0,29.72,North,5,0.0,3.0,97,0.00,,,0.00,weatherlink.com 1.10,2013-02-27 15:37:00,
2013-02-27 10:52:00,33.1,32.0,29.70,North,5,1.0,2.0,97,0.00,,,0.00,weatherlink.com 1.10,2013-02-27 15:52:00,
2013-02-27 11:07:00,33.2,33.0,29.70,North,5,1.0,2.0,97,0.00,,,0.00,weatherlink.com 1.10,2013-02-27 16:07:00,
2013-02-27 11:22:00,33.8,33.0,29.68,North,5,0.0,2.0,98,0.00,,,0.00,weatherlink.com 1.10,2013-02-27 16:22:00,
2013-02-27 11:37:00,34.0,34.0,29.67,North,5,0.0,0.0,98,0.00,,,0.00,weatherlink.com 1.10,2013-02-27 16:37:00,
2013-02-27 11:52:00,34.2,34.0,29.67,North,5,0.0,0.0,98,0.00,,,0.00,weatherlink.com 1.10,2013-02-27 16:52:00,
2013-02-27 12:07:00,34.3,34.0,29.66,North,5,0.0,0.0,98,0.02,,,0.02,weatherlink.com 1.10,2013-02-27 17:07:00,
2013-02-27 12:22:00,35.4,35.0,29.66,North,5,0.0,2.0,98,0.04,,,0.04,weatherlink.com 1.10,2013-02-27 17:22:00,
2013-02-27 12:37:00,35.9,35.0,29.65,North,5,0.0,1.0,98,0.08,,,0.08,weatherlink.com 1.10,2013-02-27 17:37:00,
2013-02-27 12:52:00,35.7,35.0,29.65,North,5,0.0,1.0,98,0.12,,,0.12,weatherlink.com 1.10,2013-02-27 17:52:00,
2013-02-27 13:07:00,36.2,36.0,29.64,NNW,336,1.0,2.0,98,0.15,,,0.17,weatherlink.com 1.10,2013-02-27 18:07:00,
2013-02-27 13:22:00,36.1,36.0,29.62,NNW,338,1.0,2.0,98,0.16,,,0.20,weatherlink.com 1.10,2013-02-27 18:22:00,
2013-02-27 13:37:00,36.6,36.0,29.62,NNW,337,0.0,1.0,98,0.16,,,0.24,weatherlink.com 1.10,2013-02-27 18:37:00,
2013-02-27 13:52:00,36.9,36.0,29.61,NNW,337,0.0,0.0,98,0.17,,,0.29,weatherlink.com 1.10,2013-02-27 18:52:00,
2013-02-27 14:07:00,36.8,36.0,29.61,NNW,337,0.0,0.0,98,0.15,,,0.32,weatherlink.com 1.10,2013-02-27 19:07:00,
2013-02-27 14:22:00,36.8,36.0,29.61,NNW,337,0.0,1.0,98,0.14,,,0.34,weatherlink.com 1.10,2013-02-27 19:22:00,
2013-02-27 14:37:00,36.5,36.0,29.60,NNW,337,0.0,1.0,98,0.12,,,0.36,weatherlink.com 1.10,2013-02-27 19:37:00,
2013-02-27 14:52:00,37.1,37.0,29.60,NNW,337,0.0,1.0,98,0.11,,,0.40,weatherlink.com 1.10,2013-02-27 19:52:00,
2013-02-27 15:07:00,37.1,37.0,29.60,NNW,337,0.0,0.0,98,0.10,,,0.42,weatherlink.com 1.10,2013-02-27 20:07:00,
2013-02-27 15:23:00,36.8,36.0,29.59,NNW,344,0.0,2.0,98,0.09,,,0.43,weatherlink.com 1.10,2013-02-27 20:23:00,
2013-02-27 15:38:00,37.4,37.0,29.58,NNE,24,0.0,3.0,98,0.08,,,0.44,weatherlink.com 1.10,2013-02-27 20:38:00,
2013-02-27 15:53:00,37.5,37.0,29.58,NNE,24,0.0,0.0,98,0.07,,,0.47,weatherlink.com 1.10,2013-02-27 20:53:00,
2013-02-27 16:08:00,37.1,37.0,29.57,NNE,24,0.0,0.0,98,0.08,,,0.50,weatherlink.com 1.10,2013-02-27 21:08:00,
2013-02-27 16:23:00,36.9,36.0,29.58,NNE,24,0.0,0.0,98,0.11,,,0.54,weatherlink.com 1.10,2013-02-27 21:23:00,
2013-02-27 16:38:00,37.1,37.0,29.58,NNE,24,0.0,0.0,98,0.13,,,0.58,weatherlink.com 1.10,2013-02-27 21:38:00,
2013-02-27 16:53:00,37.2,37.0,29.58,NNE,24,0.0,0.0,98,0.16,,,0.63,weatherlink.com 1.10,2013-02-27 21:53:00,
2013-02-27 17:08:00,37.1,37.0,29.59,NNE,24,0.0,0.0,98,0.16,,,0.66,weatherlink.com 1.10,2013-02-27 22:08:00,
2013-02-27 17:23:00,36.8,36.0,29.59,NNE,24,0.0,0.0,98,0.15,,,0.69,weatherlink.com 1.10,2013-02-27 22:23:00,
2013-02-27 17:38:00,36.5,36.0,29.60,NNE,24,0.0,1.0,98,0.13,,,0.72,weatherlink.com 1.10,2013-02-27 22:38:00,
2013-02-27 17:53:00,36.3,36.0,29.60,NNE,24,0.0,0.0,98,0.11,,,0.74,weatherlink.com 1.10,2013-02-27 22:53:00,
2013-02-27 18:08:00,36.5,36.0,29.61,NNE,24,0.0,0.0,98,0.11,,,0.77,weatherlink.com 1.10,2013-02-27 23:08:00,
2013-02-27 18:23:00,36.1,36.0,29.61,NNE,24,0.0,0.0,98,0.10,,,0.80,weatherlink.com 1.10,2013-02-27 23:23:00,
2013-02-27 18:38:00,35.9,35.0,29.61,NNE,24,0.0,0.0,98,0.10,,,0.82,weatherlink.com 1.10,2013-02-27 23:38:00,
2013-02-27 18:53:00,35.9,35.0,29.62,NNE,24,0.0,1.0,98,0.10,,,0.84,weatherlink.com 1.10,2013-02-27 23:53:00,
2013-02-27 19:08:00,36.2,36.0,29.62,NNE,24,0.0,1.0,98,0.08,,,0.86,weatherlink.com 1.10,2013-02-28 00:08:00,
2013-02-27 19:23:00,36.8,36.0,29.62,ENE,62,0.0,2.0,98,0.07,,,0.87,weatherlink.com 1.10,2013-02-28 00:23:00,
2013-02-27 19:38:00,36.1,36.0,29.62,ENE,63,0.0,1.0,98,0.07,,,0.89,weatherlink.com 1.10,2013-02-28 00:38:00,
2013-02-27 19:53:00,35.9,35.0,29.62,ENE,63,0.0,0.0,98,0.06,,,0.90,weatherlink.com 1.10,2013-02-28 00:53:00,
2013-02-27 20:08:00,36.2,36.0,29.63,NW,319,0.0,3.0,98,0.06,,,0.92,weatherlink.com 1.10,2013-02-28 01:08:00,
2013-02-27 20:23:00,35.9,35.0,29.63,NW,319,0.0,1.0,98,0.05,,,0.93,weatherlink.com 1.10,2013-02-28 01:23:00,
2013-02-27 20:38:00,35.6,35.0,29.64,NW,319,0.0,0.0,98,0.06,,,0.95,weatherlink.com 1.10,2013-02-28 01:38:00,
2013-02-27 20:53:00,35.4,35.0,29.63,NW,319,0.0,1.0,98,0.08,,,0.98,weatherlink.com 1.10,2013-02-28 01:53:00,
2013-02-27 21:08:00,35.6,35.0,29.64,NNW,346,0.0,1.0,98,0.08,,,1.00,weatherlink.com 1.10,2013-02-28 02:08:00,
2013-02-27 21:23:00,35.8,36.0,29.64,NNW,346,0.0,0.0,99,0.06,,,1.00,weatherlink.com 1.10,2013-02-28 02:23:00,
2013-02-27 21:38:00,35.6,35.0,29.64,NNW,346,0.0,0.0,98,0.07,,,1.02,weatherlink.com 1.10,2013-02-28 02:38:00,
2013-02-27 21:53:00,35.5,35.0,29.65,NNW,346,0.0,0.0,98,0.05,,,1.03,weatherlink.com 1.10,2013-02-28 02:53:00,
2013-02-27 22:08:00,35.1,35.0,29.65,NNW,346,0.0,0.0,98,0.04,,,1.04,weatherlink.com 1.10,2013-02-28 03:08:00,
2013-02-27 22:23:00,35.1,35.0,29.65,NNW,346,0.0,0.0,98,0.05,,,1.05,weatherlink.com 1.10,2013-02-28 03:23:00,
2013-02-27 22:38:00,35.1,35.0,29.65,NNW,346,0.0,0.0,98,0.04,,,1.06,weatherlink.com 1.10,2013-02-28 03:38:00,
2013-02-27 22:53:00,34.9,34.0,29.64,NNW,346,0.0,0.0,98,0.03,,,1.06,weatherlink.com 1.10,2013-02-28 03:53:00,
2013-02-27 23:08:00,34.6,34.0,29.64,NNW,346,0.0,0.0,98,0.02,,,1.06,weatherlink.com 1.10,2013-02-28 04:08:00,
2013-02-27 23:22:00,34.7,34.0,29.63,NNW,346,0.0,0.0,98,0.01,,,1.06,weatherlink.com 1.10,2013-02-28 04:22:00,
2013-02-27 23:37:00,34.4,34.0,29.63,NNW,346,0.0,0.0,98,0.01,,,1.07,weatherlink.com 1.10,2013-02-28 04:37:00,
2013-02-27 23:52:00,34.2,34.0,29.62,NNW,346,0.0,0.0,98,0.01,,,1.07,weatherlink.com 1.10,2013-02-28 04:52:00,